ARIANE 5 R/B, 32021

Orbit data source: Space-Track

ARIANE 5 R/B, 32021 is space debris in HEO originally from a launch on Tue, 14 Aug 2007 UTC launched from the French Guiana (FRGUI). Debris objects in space refer to the collection of defunct objects orbiting the Earth. Examples of debris include non-operational satellites, rocket bodies, and fragments generated from explosions, collisions, or faulty payload assembly.

Loading next visibility...
Identifier
32021, 2007-036D
Orbit
HEO
Country
Flag of FRFR
Related business
Manufacturer
EADS/LV
Mission
Spacecraft
Bus & Motor
ESC-A, Unknown motor
Mass
~5,000 kg wet, ~5,000 kg dry
Launch date (UTC)
2007-08-14 (18 years ago)
Launch vehicle
Unknown
Launch site
French Guiana (FRGUI)
Object type
Payload
Rocket body
Debris
Shape & HBR
Cyl + 1 Nozzle, 3.5 m
Radar Cross Section
41.627 m², Large (>1 m²)

Expand to show TLE details & history
Last TLE update: 22 hours ago

TLE from 22 hours ago
0 ARIANE 5 R/B
1 32021U 07036D   25259.24804693  .00001451  00000-0  73858-3 0  9998
2 32021   1.6828 190.0642 7121219  78.1426 347.4831  2.46127846155931
Epoch: 2025-09-16T05:57Z
TLE epoch observation values (Epoch: 2025-09-16T05:57:11.254Z)
Latitude
0.00001°
Longitude
104.79046°
Altitude
3,667.45 km
Speed
7.883 km/s
True Right ascension
12h 38m 06s
True Declination
0° 00' 00"
Sunlit
Object was in daylight at epoch
Visualization orbit readout
Latitude
Unknown
Longitude
Unknown
Altitude
Unknown
Speed
Unknown
Apparent Right ascension
Unknown
Apparent Declination
Unknown
Sunlit
N/A
Visualization observer readout
Local Sidereal Time
21:06:59
Azimuth
Unknown
Elevation
Unknown
Doppler factor
Unknown
Orbital elements
Apogee altitude
33,304.371 km
Perigee altitude
294.124 km
Semi-major axis
23,177.385 km
Eccentricity
0.71212
Inclination
1.6828°
RAAN
190.0642°
Arg. of periapsis
78.1426°
True anomaly
281.30143°
Mean anomaly
347.4831°
Eccentric anomaly
322.83352°
Mean motion
0.6151 °/min
Orbital period
585.27 mins
BSTAR
0.00073858
Loading maneuver chart data...
Computing Atmospheric mass density...
Loading historical data...
Loading historical data...
Loading historical data...
Loading historical data...
Loading historical data...
Loading historical data...
Loading historical data...
Other satellites on launch #36 in the year 2007 (2007-08-14 UTC)

Documentation

Showing up to 5 results
|